Airfield :
LOGIN :

Register | Disclaimer

   EN    FR    IT 

 










Legend :    VFR   Marginal VFR   IFR   Intensive IFR   Very Intensive IFR
Visi :
Ceiling :
>= 8 km
>= 3000ft
5 to 8 km
1000 to 3000 ft
1500m to 5 km
500 to 1000 ft
800 to 1500m
200 to 500 ft
< 800m
< 200 ft
Symbols :   Thunderstorms  Fog  Heavy snow  Heavy precipitations  Wind > 20 kt
SIGMETs :     Misc.  Thunderstorms  Icing  Turbulence  Mountain Waves  Volcanic Ashes






- Airport Elevation : 194 ft
- IATA code : ANE


LFJR - Angers Marcé

CURRENT METAR :
  • 201430Z AUTO 15007KT CAVOK 17/13 Q1006

EXPIRED METARs :
  • 201400Z AUTO 16007KT 140V200 CAVOK 18/13 Q1006
  • 201330Z AUTO 17007KT 130V200 9999 ///TCU 18/13 Q1006
  • 201300Z AUTO 17009KT 140V200 CAVOK 18/12 Q1006
  • 201230Z AUTO 16007KT 120V190 CAVOK 17/12 Q1006
  • 201200Z AUTO 15008KT CAVOK 17/13 Q1006

Expired Forecast.



MET'MAP, your aeronautical weather chart ! - Copyright ORBIFLY December 2007 - Disclaimer

ORBIFLY MET'MAP TEAM :

Programming & Development : Alexandra Zaïnal
Concept & original design : Baudouin d'Aumeries
Assistance for programming : Marc-Olivier Méhu
Technical & hardware support : Manuel Goepfert

Contact : metmap@orbifly.com




SOURCES & CREDITS :

   NOAA